Find Starlink 37124

NORAD ID: 68283 Int'l Des: 2026-055 Owner: SPXS Country: US Constellation: starlink operational
LEOCIRCULAR

实时位置

正在加载3D地球...

关于 Starlink 37124

正在加载描述...

即将过境

Passes for default location (London). Set your location on the main map for personalized predictions.

高度历史

Loading altitude history...

两行轨道根数

1 68283U 26055X 26124.58335648 .00016990 00000-0 58462-3 0 9995
2 68283 53.1600 60.2432 0001973 98.5718 133.0550 15.30189303 6038
Epoch: May 4, 2026 • Age: 6 hours

当前状态

高度 481.0 km
速度 7.62 km/s
星下点 -19.59°S, 89.41°E
发射日期 Mar 19, 2026
运行时间 0.1 years
类型 internet

技术详情

分类 Payload
质量 575.00 kg
干质量 530.00 kg
总质量 575.00 kg
长度 0.30 m
直径 4.10 m
跨度 29.00 m
形状 Box + pan
制造商 SPXS
平台类型 Starlink V2MO
阶段状态 In Orbit
所有者/国家 SPXS/US

Most Searched